Time,TemperatureF,DewpointF,PressureIn,WindDirection,WindDirectionDegrees,WindSpeedMPH,WindSpeedGustMPH,Humidity,HourlyPrecipIn,Conditions,Clouds,dailyrainin,SoftwareType,DateUTC
2013-09-08 00:05:00,67.8,53.8,-100.00,North,-999,0.0,0.0,61,0.00,,,-99.99,FreeWX-Wi 1.02,2013-09-08 04:05:00,
2013-09-08 00:15:00,67.6,53.8,-100.00,North,-999,0.0,0.0,61,0.00,,,-99.99,FreeWX-Wi 1.02,2013-09-08 04:15:00,
2013-09-08 00:25:00,67.6,53.8,-100.00,North,-999,0.0,0.0,61,0.00,,,-99.99,FreeWX-Wi 1.02,2013-09-08 04:25:00,
2013-09-08 00:35:00,67.5,54.0,-100.00,North,-999,0.0,0.0,62,0.00,,,-99.99,FreeWX-Wi 1.02,2013-09-08 04:35:00,
2013-09-08 00:45:00,67.3,53.8,-100.00,North,-999,0.0,0.0,62,0.00,,,-99.99,FreeWX-Wi 1.02,2013-09-08 04:45:00,
2013-09-08 00:55:00,67.3,53.8,-100.00,North,-999,0.0,0.0,62,0.00,,,-99.99,FreeWX-Wi 1.02,2013-09-08 04:55:00,
2013-09-08 01:05:00,67.1,54.1,-100.00,North,-999,0.0,0.0,63,0.00,,,-99.99,FreeWX-Wi 1.02,2013-09-08 05:05:00,
2013-09-08 01:15:00,66.9,54.0,-100.00,North,-999,0.0,0.0,63,0.00,,,-99.99,FreeWX-Wi 1.02,2013-09-08 05:15:00,
2013-09-08 01:25:00,66.7,53.8,-100.00,North,-999,0.0,0.0,63,0.00,,,-99.99,FreeWX-Wi 1.02,2013-09-08 05:25:00,
2013-09-08 01:35:00,66.6,53.6,-100.00,North,-999,0.0,0.0,63,0.00,,,-99.99,FreeWX-Wi 1.02,2013-09-08 05:35:00,
2013-09-08 01:45:00,66.6,53.6,-100.00,North,-999,0.0,0.0,63,0.00,,,-99.99,FreeWX-Wi 1.02,2013-09-08 05:45:00,
2013-09-08 01:55:00,66.4,53.8,-100.00,North,-999,0.0,0.0,64,0.00,,,-99.99,FreeWX-Wi 1.02,2013-09-08 05:55:00,
2013-09-08 02:05:00,66.4,53.8,-100.00,North,-999,0.0,0.0,64,0.00,,,-99.99,FreeWX-Wi 1.02,2013-09-08 06:05:00,
2013-09-08 02:15:00,66.4,53.8,-100.00,North,-999,0.0,0.0,64,0.00,,,-99.99,FreeWX-Wi 1.02,2013-09-08 06:15:00,
2013-09-08 02:25:00,66.4,53.8,-100.00,North,-999,0.0,0.0,64,0.00,,,-99.99,FreeWX-Wi 1.02,2013-09-08 06:25:00,
2013-09-08 02:35:00,66.4,53.8,-100.00,North,-999,0.0,0.0,64,0.00,,,-99.99,FreeWX-Wi 1.02,2013-09-08 06:35:00,
2013-09-08 02:45:00,66.2,53.6,-100.00,North,-999,0.0,0.0,64,0.00,,,-99.99,FreeWX-Wi 1.02,2013-09-08 06:45:00,
2013-09-08 02:55:00,66.0,54.0,-100.00,North,-999,0.0,0.0,65,0.00,,,-99.99,FreeWX-Wi 1.02,2013-09-08 06:55:00,
2013-09-08 03:05:00,66.0,54.0,-100.00,North,-999,0.0,0.0,65,0.00,,,-99.99,FreeWX-Wi 1.02,2013-09-08 07:05:00,
2013-09-08 03:15:00,66.0,54.0,-100.00,North,-999,0.0,0.0,65,0.00,,,-99.99,FreeWX-Wi 1.02,2013-09-08 07:15:00,
2013-09-08 03:25:00,66.0,54.3,-100.00,North,-999,0.0,0.0,66,0.00,,,-99.99,FreeWX-Wi 1.02,2013-09-08 07:25:00,
2013-09-08 03:35:00,66.0,54.3,-100.00,North,-999,0.0,0.0,66,0.00,,,-99.99,FreeWX-Wi 1.02,2013-09-08 07:35:00,
2013-09-08 03:45:00,65.8,54.1,-100.00,North,-999,0.0,0.0,66,0.00,,,-99.99,FreeWX-Wi 1.02,2013-09-08 07:45:00,
2013-09-08 03:55:00,65.8,54.1,-100.00,North,-999,0.0,0.0,66,0.00,,,-99.99,FreeWX-Wi 1.02,2013-09-08 07:55:00,
2013-09-08 04:05:00,65.8,54.5,-100.00,North,-999,0.0,0.0,67,0.00,,,-99.99,FreeWX-Wi 1.02,2013-09-08 08:05:00,
2013-09-08 04:15:00,65.7,54.3,-100.00,North,-999,0.0,0.0,67,0.00,,,-99.99,FreeWX-Wi 1.02,2013-09-08 08:15:00,
2013-09-08 04:25:00,65.7,54.3,-100.00,North,-999,0.0,0.0,67,0.00,,,-99.99,FreeWX-Wi 1.02,2013-09-08 08:25:00,
2013-09-08 04:35:00,65.5,54.1,-100.00,North,-999,0.0,0.0,67,0.00,,,-99.99,FreeWX-Wi 1.02,2013-09-08 08:35:00,
2013-09-08 04:45:00,65.5,54.1,-100.00,North,-999,0.0,0.0,67,0.00,,,-99.99,FreeWX-Wi 1.02,2013-09-08 08:45:00,
2013-09-08 04:55:00,65.1,54.0,-100.00,North,-999,0.0,0.0,67,0.00,,,-99.99,FreeWX-Wi 1.02,2013-09-08 08:55:00,
2013-09-08 05:05:00,65.1,54.0,-100.00,North,-999,0.0,0.0,67,0.00,,,-99.99,FreeWX-Wi 1.02,2013-09-08 09:05:00,
2013-09-08 05:15:00,65.1,54.0,-100.00,North,-999,0.0,0.0,67,0.00,,,-99.99,FreeWX-Wi 1.02,2013-09-08 09:15:00,
2013-09-08 05:25:00,64.9,53.8,-100.00,North,-999,0.0,0.0,67,0.00,,,-99.99,FreeWX-Wi 1.02,2013-09-08 09:25:00,
2013-09-08 05:35:00,64.8,53.6,-100.00,North,-999,0.0,0.0,67,0.00,,,-99.99,FreeWX-Wi 1.02,2013-09-08 09:35:00,
2013-09-08 05:45:00,64.6,53.4,-100.00,North,-999,0.0,0.0,67,0.00,,,-99.99,FreeWX-Wi 1.02,2013-09-08 09:45:00,
2013-09-08 05:55:00,64.2,53.1,-100.00,North,-999,0.0,0.0,67,0.00,,,-99.99,FreeWX-Wi 1.02,2013-09-08 09:55:00,
2013-09-08 06:05:00,64.2,53.1,-100.00,North,-999,0.0,0.0,67,0.00,,,-99.99,FreeWX-Wi 1.02,2013-09-08 10:05:00,
2013-09-08 06:15:00,64.4,53.2,-100.00,North,-999,0.0,0.0,67,0.00,,,-99.99,FreeWX-Wi 1.02,2013-09-08 10:15:00,
2013-09-08 06:25:00,64.4,53.2,-100.00,North,-999,0.0,0.0,67,0.00,,,-99.99,FreeWX-Wi 1.02,2013-09-08 10:25:00,
2013-09-08 06:35:00,64.4,53.6,-100.00,North,-999,0.0,0.0,68,0.00,,,-99.99,FreeWX-Wi 1.02,2013-09-08 10:35:00,
2013-09-08 06:45:00,64.4,53.6,-100.00,North,-999,0.0,0.0,68,0.00,,,-99.99,FreeWX-Wi 1.02,2013-09-08 10:45:00,
2013-09-08 06:55:00,64.4,53.6,-100.00,North,-999,0.0,0.0,68,0.00,,,-99.99,FreeWX-Wi 1.02,2013-09-08 10:55:00,
2013-09-08 07:05:00,64.2,53.4,-100.00,North,-999,0.0,0.0,68,0.00,,,-99.99,FreeWX-Wi 1.02,2013-09-08 11:05:00,
2013-09-08 07:15:00,64.2,53.8,-100.00,North,-999,0.0,0.0,69,0.00,,,-99.99,FreeWX-Wi 1.02,2013-09-08 11:15:00,
2013-09-08 07:25:00,64.2,53.8,-100.00,North,-999,0.0,0.0,69,0.00,,,-99.99,FreeWX-Wi 1.02,2013-09-08 11:25:00,
2013-09-08 07:35:00,64.2,53.8,-100.00,North,-999,0.0,0.0,69,0.00,,,-99.99,FreeWX-Wi 1.02,2013-09-08 11:35:00,
2013-09-08 07:45:00,64.2,53.8,-100.00,North,-999,0.0,0.0,69,0.00,,,-99.99,FreeWX-Wi 1.02,2013-09-08 11:45:00,
2013-09-08 07:55:00,64.4,54.0,-100.00,North,-999,0.0,0.0,69,0.00,,,-99.99,FreeWX-Wi 1.02,2013-09-08 11:55:00,
2013-09-08 08:05:00,64.4,54.0,-100.00,North,-999,0.0,0.0,69,0.00,,,-99.99,FreeWX-Wi 1.02,2013-09-08 12:05:00,
2013-09-08 08:15:00,64.4,54.0,-100.00,North,-999,0.0,0.0,69,0.00,,,-99.99,FreeWX-Wi 1.02,2013-09-08 12:15:00,
2013-09-08 08:25:00,64.6,54.5,-100.00,North,-999,0.0,0.0,70,0.00,,,-99.99,FreeWX-Wi 1.02,2013-09-08 12:25:00,
2013-09-08 08:35:00,64.8,54.7,-100.00,North,-999,0.0,0.0,70,0.00,,,-99.99,FreeWX-Wi 1.02,2013-09-08 12:35:00,
2013-09-08 08:45:00,65.1,55.0,-100.00,North,-999,0.0,0.0,70,0.00,,,-99.99,FreeWX-Wi 1.02,2013-09-08 12:45:00,
2013-09-08 08:55:00,65.5,55.4,-100.00,North,-999,0.0,0.0,70,0.00,,,-99.99,FreeWX-Wi 1.02,2013-09-08 12:55:00,
2013-09-08 09:05:00,66.0,56.3,-100.00,North,-999,0.0,0.0,71,0.00,,,-99.99,FreeWX-Wi 1.02,2013-09-08 13:05:00,
2013-09-08 09:15:00,66.6,56.8,-100.00,North,-999,0.0,0.0,71,0.00,,,-99.99,FreeWX-Wi 1.02,2013-09-08 13:15:00,
2013-09-08 09:25:00,66.9,57.2,-100.00,North,-999,0.0,0.0,71,0.00,,,-99.99,FreeWX-Wi 1.02,2013-09-08 13:25:00,
2013-09-08 09:35:00,67.5,57.7,-100.00,North,-999,0.0,0.0,71,0.00,,,-99.99,FreeWX-Wi 1.02,2013-09-08 13:35:00,
2013-09-08 09:45:00,68.2,58.5,-100.00,North,-999,0.0,0.0,71,0.00,,,-99.99,FreeWX-Wi 1.02,2013-09-08 13:45:00,
2013-09-08 09:55:00,68.7,59.0,-100.00,North,-999,0.0,0.0,71,0.00,,,-99.99,FreeWX-Wi 1.02,2013-09-08 13:55:00,
2013-09-08 10:05:00,69.4,60.1,-100.00,North,-999,0.0,0.0,72,0.00,,,-99.99,FreeWX-Wi 1.02,2013-09-08 14:05:00,
2013-09-08 10:15:00,70.0,60.1,-100.00,North,-999,0.0,0.0,71,0.00,,,-99.99,FreeWX-Wi 1.02,2013-09-08 14:15:00,
2013-09-08 10:25:00,70.9,61.0,-100.00,North,-999,0.0,0.0,71,0.00,,,-99.99,FreeWX-Wi 1.02,2013-09-08 14:25:00,
2013-09-08 10:35:00,72.0,62.1,-100.00,North,-999,0.0,0.0,71,0.00,,,-99.99,FreeWX-Wi 1.02,2013-09-08 14:35:00,
2013-09-08 10:45:00,72.7,61.9,-100.00,North,-999,0.0,0.0,69,0.00,,,-99.99,FreeWX-Wi 1.02,2013-09-08 14:45:00,
2013-09-08 10:55:00,73.6,61.9,-100.00,North,-999,0.0,0.0,67,0.00,,,-99.99,FreeWX-Wi 1.02,2013-09-08 14:55:00,
2013-09-08 11:05:00,74.8,61.0,-100.00,North,-999,0.0,0.0,62,0.00,,,-99.99,FreeWX-Wi 1.02,2013-09-08 15:05:00,
2013-09-08 11:15:00,75.7,59.4,-100.00,North,-999,0.0,0.0,57,0.00,,,-99.99,FreeWX-Wi 1.02,2013-09-08 15:15:00,
2013-09-08 11:25:00,76.3,57.9,-100.00,North,-999,0.0,0.0,53,0.00,,,-99.99,FreeWX-Wi 1.02,2013-09-08 15:25:00,
2013-09-08 11:35:00,77.2,55.9,-100.00,North,-999,0.0,0.0,48,0.00,,,-99.99,FreeWX-Wi 1.02,2013-09-08 15:35:00,
2013-09-08 11:45:00,77.7,54.7,-100.00,North,-999,0.0,0.0,45,0.00,,,-99.99,FreeWX-Wi 1.02,2013-09-08 15:45:00,
2013-09-08 11:55:00,78.4,54.7,-100.00,North,-999,0.0,0.0,44,0.00,,,-99.99,FreeWX-Wi 1.02,2013-09-08 15:55:00,
2013-09-08 12:05:00,79.3,54.1,-100.00,North,-999,0.0,0.0,42,0.00,,,-99.99,FreeWX-Wi 1.02,2013-09-08 16:05:00,
2013-09-08 12:15:00,80.1,54.1,-100.00,North,-999,0.0,0.0,41,0.00,,,-99.99,FreeWX-Wi 1.02,2013-09-08 16:15:00,
2013-09-08 12:25:00,81.0,54.3,-100.00,North,-999,0.0,0.0,40,0.00,,,-99.99,FreeWX-Wi 1.02,2013-09-08 16:25:00,
2013-09-08 12:35:00,81.3,54.7,-100.00,North,-999,0.0,0.0,40,0.00,,,-99.99,FreeWX-Wi 1.02,2013-09-08 16:35:00,
2013-09-08 12:45:00,81.1,53.1,-100.00,North,-999,0.0,0.0,38,0.00,,,-99.99,FreeWX-Wi 1.02,2013-09-08 16:45:00,
2013-09-08 12:55:00,82.4,52.0,-100.00,North,-999,0.0,0.0,35,0.00,,,-99.99,FreeWX-Wi 1.02,2013-09-08 16:55:00,
2013-09-08 13:05:00,82.6,50.5,-100.00,North,-999,0.0,0.0,33,0.00,,,-99.99,FreeWX-Wi 1.02,2013-09-08 17:05:00,
2013-09-08 13:15:00,82.2,51.1,-100.00,North,-999,0.0,0.0,34,0.00,,,-99.99,FreeWX-Wi 1.02,2013-09-08 17:15:00,
2013-09-08 13:25:00,82.0,50.9,-100.00,North,-999,0.0,0.0,34,0.00,,,-99.99,FreeWX-Wi 1.02,2013-09-08 17:25:00,
2013-09-08 13:35:00,81.9,50.7,-100.00,North,-999,0.0,0.0,34,0.00,,,-99.99,FreeWX-Wi 1.02,2013-09-08 17:35:00,
2013-09-08 13:45:00,81.1,50.0,-100.00,North,-999,0.0,0.0,34,0.00,,,-99.99,FreeWX-Wi 1.02,2013-09-08 17:45:00,
2013-09-08 13:55:00,80.2,50.0,-100.00,North,-999,0.0,0.0,35,0.00,,,-99.99,FreeWX-Wi 1.02,2013-09-08 17:55:00,
2013-09-08 14:05:00,80.1,49.1,-100.00,North,-999,0.0,0.0,34,0.00,,,-99.99,FreeWX-Wi 1.02,2013-09-08 18:05:00,
2013-09-08 14:15:00,79.9,48.9,-100.00,North,-999,0.0,0.0,34,0.00,,,-99.99,FreeWX-Wi 1.02,2013-09-08 18:15:00,
2013-09-08 14:25:00,79.7,48.7,-100.00,North,-999,0.0,0.0,34,0.00,,,-99.99,FreeWX-Wi 1.02,2013-09-08 18:25:00,
2013-09-08 14:35:00,79.3,50.0,-100.00,North,-999,0.0,0.0,36,0.00,,,-99.99,FreeWX-Wi 1.02,2013-09-08 18:35:00,
2013-09-08 14:45:00,79.2,50.5,-100.00,North,-999,0.0,0.0,37,0.00,,,-99.99,FreeWX-Wi 1.02,2013-09-08 18:45:00,
2013-09-08 14:55:00,79.2,50.5,-100.00,North,-999,0.0,0.0,37,0.00,,,-99.99,FreeWX-Wi 1.02,2013-09-08 18:55:00,
2013-09-08 15:05:00,79.0,51.3,-100.00,North,-999,0.0,0.0,38,0.00,,,-99.99,FreeWX-Wi 1.02,2013-09-08 19:05:00,
2013-09-08 15:15:00,79.0,50.5,-100.00,North,-999,0.0,0.0,37,0.00,,,-99.99,FreeWX-Wi 1.02,2013-09-08 19:15:00,
2013-09-08 15:25:00,78.8,50.4,-100.00,North,-999,0.0,0.0,37,0.00,,,-99.99,FreeWX-Wi 1.02,2013-09-08 19:25:00,
2013-09-08 15:35:00,78.8,49.6,-100.00,North,-999,0.0,0.0,36,0.00,,,-99.99,FreeWX-Wi 1.02,2013-09-08 19:35:00,
2013-09-08 15:45:00,78.6,49.5,-100.00,North,-999,0.0,0.0,36,0.00,,,-99.99,FreeWX-Wi 1.02,2013-09-08 19:45:00,
2013-09-08 15:55:00,78.4,50.0,-100.00,North,-999,0.0,0.0,37,0.00,,,-99.99,FreeWX-Wi 1.02,2013-09-08 19:55:00,
2013-09-08 16:05:00,78.4,50.7,-100.00,North,-999,0.0,0.0,38,0.00,,,-99.99,FreeWX-Wi 1.02,2013-09-08 20:05:00,
2013-09-08 16:15:00,78.4,51.4,-100.00,North,-999,0.0,0.0,39,0.00,,,-99.99,FreeWX-Wi 1.02,2013-09-08 20:15:00,
2013-09-08 16:25:00,78.3,52.0,-100.00,North,-999,0.0,0.0,40,0.00,,,-99.99,FreeWX-Wi 1.02,2013-09-08 20:25:00,
2013-09-08 16:35:00,77.9,51.6,-100.00,North,-999,0.0,0.0,40,0.00,,,-99.99,FreeWX-Wi 1.02,2013-09-08 20:35:00,
2013-09-08 16:45:00,77.5,52.0,-100.00,North,-999,0.0,0.0,41,0.00,,,-99.99,FreeWX-Wi 1.02,2013-09-08 20:45:00,
2013-09-08 16:55:00,77.4,51.8,-100.00,North,-999,0.0,0.0,41,0.00,,,-99.99,FreeWX-Wi 1.02,2013-09-08 20:55:00,
2013-09-08 17:05:00,77.0,52.2,-100.00,North,-999,0.0,0.0,42,0.00,,,-99.99,FreeWX-Wi 1.02,2013-09-08 21:05:00,
2013-09-08 17:15:00,76.6,52.5,-100.00,North,-999,0.0,0.0,43,0.00,,,-99.99,FreeWX-Wi 1.02,2013-09-08 21:15:00,
2013-09-08 17:25:00,76.3,52.2,-100.00,North,-999,0.0,0.0,43,0.00,,,-99.99,FreeWX-Wi 1.02,2013-09-08 21:25:00,
2013-09-08 17:35:00,76.1,52.0,-100.00,North,-999,0.0,0.0,43,0.00,,,-99.99,FreeWX-Wi 1.02,2013-09-08 21:35:00,
2013-09-08 17:45:00,75.7,52.3,-100.00,North,-999,0.0,0.0,44,0.00,,,-99.99,FreeWX-Wi 1.02,2013-09-08 21:45:00,
2013-09-08 17:55:00,75.6,52.2,-100.00,North,-999,0.0,0.0,44,0.00,,,-99.99,FreeWX-Wi 1.02,2013-09-08 21:55:00,
2013-09-08 18:05:00,75.4,52.0,-100.00,North,-999,0.0,0.0,44,0.00,,,-99.99,FreeWX-Wi 1.02,2013-09-08 22:05:00,
2013-09-08 18:15:00,75.2,52.3,-100.00,North,-999,0.0,0.0,45,0.00,,,-99.99,FreeWX-Wi 1.02,2013-09-08 22:15:00,
2013-09-08 18:25:00,75.0,53.4,-100.00,North,-999,0.0,0.0,47,0.00,,,-99.99,FreeWX-Wi 1.02,2013-09-08 22:25:00,
2013-09-08 18:35:00,74.8,53.2,-100.00,North,-999,0.0,0.0,47,0.00,,,-99.99,FreeWX-Wi 1.02,2013-09-08 22:35:00,
2013-09-08 18:45:00,74.8,53.8,-100.00,North,-999,0.0,0.0,48,0.00,,,-99.99,FreeWX-Wi 1.02,2013-09-08 22:45:00,
2013-09-08 18:55:00,74.7,54.7,-100.00,North,-999,0.0,0.0,50,0.00,,,-99.99,FreeWX-Wi 1.02,2013-09-08 22:55:00,
2013-09-08 19:05:00,74.5,55.2,-100.00,North,-999,0.0,0.0,51,0.00,,,-99.99,FreeWX-Wi 1.02,2013-09-08 23:05:00,
2013-09-08 19:15:00,74.3,55.0,-100.00,North,-999,0.0,0.0,51,0.00,,,-99.99,FreeWX-Wi 1.02,2013-09-08 23:15:00,
2013-09-08 19:25:00,74.3,55.6,-100.00,North,-999,0.0,0.0,52,0.00,,,-99.99,FreeWX-Wi 1.02,2013-09-08 23:25:00,
2013-09-08 19:35:00,73.9,55.2,-100.00,North,-999,0.0,0.0,52,0.00,,,-99.99,FreeWX-Wi 1.02,2013-09-08 23:35:00,
2013-09-08 19:45:00,73.9,55.2,-100.00,North,-999,0.0,0.0,52,0.00,,,-99.99,FreeWX-Wi 1.02,2013-09-08 23:45:00,
2013-09-08 19:55:00,73.8,55.6,-100.00,North,-999,0.0,0.0,53,0.00,,,-99.99,FreeWX-Wi 1.02,2013-09-08 23:55:00,
2013-09-08 20:05:00,73.6,55.4,-100.00,North,-999,0.0,0.0,53,0.00,,,-99.99,FreeWX-Wi 1.02,2013-09-09 00:05:00,
2013-09-08 20:15:00,73.2,55.6,-100.00,North,-999,0.0,0.0,54,0.00,,,-99.99,FreeWX-Wi 1.02,2013-09-09 00:15:00,
2013-09-08 20:25:00,73.0,55.4,-100.00,North,-999,0.0,0.0,54,0.00,,,-99.99,FreeWX-Wi 1.02,2013-09-09 00:25:00,
2013-09-08 20:35:00,72.9,55.8,-100.00,North,-999,0.0,0.0,55,0.00,,,-99.99,FreeWX-Wi 1.02,2013-09-09 00:35:00,
2013-09-08 20:45:00,72.7,55.6,-100.00,North,-999,0.0,0.0,55,0.00,,,-99.99,FreeWX-Wi 1.02,2013-09-09 00:45:00,
2013-09-08 20:55:00,72.5,55.9,-100.00,North,-999,0.0,0.0,56,0.00,,,-99.99,FreeWX-Wi 1.02,2013-09-09 00:55:00,
2013-09-08 21:05:00,72.3,55.8,-100.00,North,-999,0.0,0.0,56,0.00,,,-99.99,FreeWX-Wi 1.02,2013-09-09 01:05:00,
2013-09-08 21:15:00,72.1,55.6,-100.00,North,-999,0.0,0.0,56,0.00,,,-99.99,FreeWX-Wi 1.02,2013-09-09 01:15:00,
2013-09-08 21:25:00,72.0,55.4,-100.00,North,-999,0.0,0.0,56,0.00,,,-99.99,FreeWX-Wi 1.02,2013-09-09 01:25:00,
2013-09-08 21:35:00,71.8,55.2,-100.00,North,-999,0.0,0.0,56,0.00,,,-99.99,FreeWX-Wi 1.02,2013-09-09 01:35:00,
2013-09-08 21:45:00,71.6,55.6,-100.00,North,-999,0.0,0.0,57,0.00,,,-99.99,FreeWX-Wi 1.02,2013-09-09 01:45:00,
2013-09-08 21:54:00,71.4,55.4,-100.00,North,-999,0.0,0.0,57,0.00,,,-99.99,FreeWX-Wi 1.02,2013-09-09 01:54:00,
2013-09-08 22:04:00,71.2,55.8,-100.00,North,-999,0.0,0.0,58,0.00,,,-99.99,FreeWX-Wi 1.02,2013-09-09 02:04:00,
2013-09-08 22:14:00,71.1,55.6,-100.00,North,-999,0.0,0.0,58,0.00,,,-99.99,FreeWX-Wi 1.02,2013-09-09 02:14:00,
2013-09-08 22:24:00,70.9,55.8,-100.00,North,-999,0.0,0.0,59,0.00,,,-99.99,FreeWX-Wi 1.02,2013-09-09 02:24:00,
2013-09-08 22:34:00,70.9,55.8,-100.00,North,-999,0.0,0.0,59,0.00,,,-99.99,FreeWX-Wi 1.02,2013-09-09 02:34:00,
2013-09-08 22:44:00,70.7,55.6,-100.00,North,-999,0.0,0.0,59,0.00,,,-99.99,FreeWX-Wi 1.02,2013-09-09 02:44:00,
2013-09-08 22:54:00,70.7,56.1,-100.00,North,-999,0.0,0.0,60,0.00,,,-99.99,FreeWX-Wi 1.02,2013-09-09 02:54:00,
2013-09-08 23:04:00,70.5,55.9,-100.00,North,-999,0.0,0.0,60,0.00,,,-99.99,FreeWX-Wi 1.02,2013-09-09 03:04:00,
2013-09-08 23:14:00,70.5,55.9,-100.00,North,-999,0.0,0.0,60,0.00,,,-99.99,FreeWX-Wi 1.02,2013-09-09 03:14:00,
2013-09-08 23:24:00,70.3,56.3,-100.00,North,-999,0.0,0.0,61,0.00,,,-99.99,FreeWX-Wi 1.02,2013-09-09 03:24:00,
2013-09-08 23:34:00,70.2,56.1,-100.00,North,-999,0.0,0.0,61,0.00,,,-99.99,FreeWX-Wi 1.02,2013-09-09 03:34:00,
2013-09-08 23:44:00,70.2,56.1,-100.00,North,-999,0.0,0.0,61,0.00,,,-99.99,FreeWX-Wi 1.02,2013-09-09 03:44:00,
2013-09-08 23:54:00,70.0,55.9,-100.00,North,-999,0.0,0.0,61,0.00,,,-99.99,FreeWX-Wi 1.02,2013-09-09 03:54:00,